[[{"header":{"parameterUnit":"m.s-1","parameterCategory":2,"la1":30.2991,"la2":30.254,"lo1":-89.0895,"lo2":-89.0444,"dy":0.0017,"dx":0.0017,"nx":28,"ny":28,"refTime":"2023-08-01T09:00:00:Z","depth":"0","parameterNumber":2,"parameterNumberName":"U-component_of_CURRENTS"},"data":[0,0,0,0,0,0,0,0,0,0,0,0,0,0,0,0,0,0,0,0,0,0,0,0,0,0,0,0,0,0,0,0,0,0,0,0,0,0,0,0,0,0,0,0,0,0,0,0,0,0,0,0,0,0,0,0,0,0,0.2504,0.2504,0,0.2493,0.2493,0.2493,0.2431,0.2429,0.2428,0.2426,0.2378,0.2379,0.2379,0,0,0,0,0,0,0,0,0,0,0,0,0,0.2577,0.2575,0.2504,0.2504,0.2504,0.2493,0.2493,0.2493,0.2431,0.2429,0.2427,0.2425,0.2378,0.2379,0.2379,0,0,0,0,0,0,0,0,0,0,0,0,0,0.2556,0.2575,0.2504,0.247,0.2466,0.2493,0.2493,0.2493,0.2432,0.2429,0.2427,0.2424,0.2378,0.2379,0.2379,0.2434,0,0,0.2381,0.2381,0,0,0,0,0,0,0,0,0.2557,0.2553,0.2475,0.2472,0.2468,0.2458,0.2501,0.2471,0.2433,0.2448,0.2426,0.2423,0.2402,0.2401,0.2408,0.2432,0.243,0.2381,0.2381,0.2381,0.2381,0,0,0,0,0,0,0,0.2558,0.2554,0.2502,0.2475,0.2471,0.249,0.2483,0.2496,0.2441,0.2446,0.2441,0.2436,0.24,0.2408,0.2407,0.2429,0.2381,0.2381,0.2382,0.2382,0.2583,0.2588,0,0,0,0,0,0,0.2551,0.2555,0.2503,0.2502,0.2504,0.249,0.2483,0.2466,0.2441,0.2435,0.2439,0.2433,0.2409,0.2406,0.2405,0.2522,0.2381,0.2382,0.2382,0.2578,0.2584,0.2589,0,0,0,0,0,0,0.2553,0.2547,0.2503,0.2527,0.2522,0.249,0.2473,0.2467,0.2478,0.2436,0.2428,0.2454,0.2406,0.2404,0.2444,0.2517,0.2382,0.2383,0.2572,0.258,0.2587,0.2722,0,0,0,0,0,0,0.2555,0.2547,0.255,0.2526,0.252,0.2533,0.2475,0.2469,0.2477,0.2471,0.2447,0.2439,0.2404,0.2444,0.2445,0.2515,0.2383,0.2565,0.2575,0.2584,0.2711,0.2733,0.2752,0,0,0,0,0,0.2557,0.2565,0.255,0.2544,0.2519,0.2535,0.2536,0.2507,0.2481,0.2504,0.2497,0.244,0.2505,0.2448,0.2448,0.252,0.2561,0.2573,0.2583,0.2702,0.2729,0.2752,0,0,0,0,0,0,0.2595,0.2559,0.2541,0.2536,0.2543,0.2524,0.2545,0.2526,0.2541,0.2536,0.2491,0.2486,0.255,0.2533,0.2471,0.2615,0.2531,0.2542,0.2621,0.2646,0.2666,0.2748,0.2383,0,0,0,0,0,0.2607,0.2603,0.2581,0.2584,0.2592,0.2577,0.2584,0.2567,0.2568,0.257,0.2557,0.2568,0.2603,0.2616,0.2634,0.2707,0.2733,0.2764,0.2785,0.2802,0.2875,0.3008,0.3047,0.2627,0.2626,0.2626,0,0,0.2628,0.2603,0.2605,0.2594,0.2598,0.2652,0.2576,0.2598,0.2659,0.2567,0.2649,0.2631,0.2639,0.2719,0.275,0.2708,0.2921,0.2816,0.283,0.2895,0.3024,0.3065,0.3101,0.2634,0.2633,0.2632,0,0,0.268,0.2646,0.2676,0.2699,0.2707,0.2708,0.2722,0.2724,0.2739,0.2803,0.2771,0.2821,0.2841,0.2889,0.291,0.307,0.3021,0.3055,0.3225,0.3352,0.3388,0.342,0.3435,0.3468,0.3069,0.307,0.307,0,0.2715,0.274,0.2694,0.2748,0.2796,0.2746,0.2832,0.2852,0.2871,0.2921,0.2849,0.2971,0.2947,0.3105,0.3153,0.3119,0.3143,0.3113,0.3379,0.3412,0.3443,0.3451,0.3485,0.3077,0.3077,0.3076,0.3075,0,0.2797,0.2844,0.2873,0.2927,0.2971,0.3032,0.3058,0.3103,0.3101,0.3125,0.3249,0.3238,0.3314,0.3313,0.3275,0.3493,0.3417,0.3378,0.3309,0.3493,0.3488,0.3522,0.3089,0.3086,0.3084,0.3082,0,0,0.2819,0.2917,0.2929,0.3011,0.308,0.3125,0.3243,0.3346,0.342,0.3457,0.3582,0.3665,0.3641,0.3673,0.3636,0.3751,0.3932,0.3668,0.3671,0.367,0.4148,0.3897,0.3907,0.3934,0.3942,0.3949,0.403,0,0.2915,0.3062,0.3081,0.3256,0.3359,0.3383,0.349,0.3574,0.3608,0.37,0.3757,0.3829,0.3782,0.3788,0.3923,0.392,0.404,0.391,0.3986,0.3988,0.3734,0.3947,0.3632,0.3664,0.4062,0.4067,0.4071,0,0.3005,0.3096,0.3285,0.345,0.3491,0.3576,0.3735,0.3815,0.3932,0.3954,0.4071,0.4058,0.423,0.4129,0.4339,0.4251,0.4254,0.4252,0.4254,0.4019,0.3804,0.3563,0.3708,0.3546,0.4121,0.4117,0.4114,0,0.308,0.3247,0.3407,0.347,0.3633,0.3719,0.3786,0.3903,0.3972,0.4104,0.4138,0.4326,0.4362,0.4492,0.4464,0.4425,0.4639,0.4564,0.4359,0.4334,0.4089,0.4029,0.4087,0.4778,0.4778,0.4778,0.4778,0,0.32,0.3327,0.3445,0.3547,0.3704,0.3786,0.393,0.4005,0.4104,0.4185,0.426,0.4337,0.4465,0.4547,0.4565,0.4546,0.4728,0.446,0.4392,0.4112,0.4057,0.3915,0.3907,0.4781,0.478,0.478,0.4779,0,0.3283,0.3369,0.3553,0.3716,0.3757,0.3863,0.3973,0.405,0.4132,0.4232,0.427,0.439,0.4474,0.4539,0.4678,0.4603,0.4471,0.4581,0.4175,0.406,0.3669,0.368,0.3638,0.3568,0.4394,0.4389,0.4385,0,0.3341,0.3451,0.3639,0.3712,0.3785,0.3911,0.3973,0.4064,0.4115,0.4244,0.4284,0.4383,0.4428,0.4494,0.4374,0.4347,0.4299,0.4025,0.3929,0.3671,0.3638,0.3544,0.3486,0.3628,0.3618,0.361,0.3603,0,0.3457,0.352,0.3659,0.379,0.3877,0.3956,0.4036,0.4068,0.4145,0.4196,0.4245,0.4292,0.4259,0.4066,0.397,0.3915,0.3765,0.3849,0.3751,0.322,0.2968,0.2851,0.3481,0.353,0.3537,0.3543,0.3547,0.355,0.352,0.3614,0.3765,0.387,0.3944,0.3968,0.3964,0.4001,0.4033,0.3977,0.4112,0.3994,0.3776,0.3573,0.3509,0.3049,0.3254,0.2876,0.2958,0.292,0.2733,0.3143,0.3003,0.3007,0.3011,0.3014,0.3017,0,0.3604,0.3699,0.3813,0.3919,0.3927,0.3964,0.3968,0.3869,0.3801,0.3737,0.3695,0.3311,0.3043,0.2826,0.2356,0.2177,0.2127,0.2102,0.1954,0.1989,0.2474,0.2312,0.1809,0.1809,0.1809,0.1809,0.181,0.181,0.3669,0.3794,0.383,0.3858,0.3876,0.3782,0.3727,0.3564,0.3442,0.3069,0.2754,0.2645,0.2382,0.1958,0.159,0.1543,0.1506,0.1325,0.1532,0.1869,0.1948,0.2024,0.1868,0.128,0.128,0.0845,0.0842,0.084]},{"header":{"parameterUnit":"m.s-1","parameterCategory":2,"la1":30.2991,"la2":30.254,"lo1":-89.0895,"lo2":-89.0444,"dy":0.0017,"dx":0.0017,"nx":28,"ny":28,"refTime":"2023-08-01T09:00:00:Z","depth":"0","parameterNumber":3,"parameterNumberName":"V-component_of_CURRENTS"},"data":[0,0,0,0,0,0,0,0,0,0,0,0,0,0,0,0,0,0,0,0,0,0,0,0,0,0,0,0,0,0,0,0,0,0,0,0,0,0,0,0,0,0,0,0,0,0,0,0,0,0,0,0,0,0,0,0,0,0,0.0255,0.0255,0,0.0258,0.0258,0.0258,0.0231,0.0231,0.023,0.0229,0.0224,0.0225,0.0225,0,0,0,0,0,0,0,0,0,0,0,0,0,0.0225,0.0226,0.0255,0.0255,0.0255,0.0258,0.0258,0.0258,0.0232,0.0231,0.023,0.0229,0.0224,0.0224,0.0225,0,0,0,0,0,0,0,0,0,0,0,0,0,0.0235,0.0226,0.0255,0.0242,0.0241,0.0258,0.0258,0.0258,0.0232,0.0231,0.0229,0.0228,0.0224,0.0224,0.0225,0.0253,0,0,0.0228,0.0228,0,0,0,0,0,0,0,0,0.0234,0.0236,0.0244,0.0243,0.0242,0.0243,0.0246,0.0256,0.0232,0.0235,0.0229,0.0228,0.023,0.0231,0.0234,0.0253,0.0253,0.0228,0.0228,0.0229,0.0229,0,0,0,0,0,0,0,0.0233,0.0235,0.0256,0.0244,0.0243,0.0236,0.0236,0.0248,0.0239,0.0235,0.0233,0.0234,0.023,0.0233,0.0234,0.0253,0.0228,0.0229,0.0229,0.023,0.0321,0.0323,0,0,0,0,0,0,0.0234,0.0235,0.0256,0.0256,0.0235,0.0237,0.0238,0.0244,0.0239,0.0237,0.0235,0.0232,0.0232,0.0233,0.0233,0.0275,0.0229,0.023,0.023,0.0319,0.0321,0.0323,0,0,0,0,0,0,0.0234,0.0237,0.0256,0.0245,0.0247,0.0239,0.0247,0.0245,0.025,0.0239,0.0237,0.0241,0.0232,0.0232,0.0251,0.0274,0.023,0.0231,0.0317,0.032,0.0322,0.0352,0,0,0,0,0,0,0.0233,0.0237,0.0246,0.0246,0.0248,0.0279,0.0248,0.0245,0.0252,0.0249,0.0244,0.0242,0.0231,0.025,0.0252,0.0274,0.0231,0.0314,0.0318,0.0321,0.0349,0.0356,0.0361,0,0,0,0,0,0.0232,0.0255,0.0247,0.025,0.026,0.028,0.0282,0.0271,0.0253,0.0269,0.0261,0.0243,0.0275,0.0252,0.0254,0.0277,0.0313,0.0317,0.0321,0.0346,0.0354,0.0361,0,0,0,0,0,0,0.0243,0.0255,0.0245,0.0269,0.0277,0.0276,0.0292,0.0279,0.0286,0.0283,0.0263,0.0262,0.0291,0.0287,0.0263,0.0318,0.0293,0.0298,0.0312,0.0319,0.0326,0.0341,0.0232,0,0,0,0,0,0.0251,0.0273,0.0277,0.0295,0.0305,0.0299,0.0305,0.0299,0.0301,0.0302,0.0296,0.0299,0.0313,0.0316,0.033,0.0356,0.0382,0.0377,0.0383,0.0388,0.0405,0.0496,0.0512,0.0338,0.0338,0.0337,0,0,0.0257,0.0268,0.0278,0.0299,0.0306,0.0326,0.0301,0.0321,0.033,0.0303,0.032,0.0324,0.0327,0.0356,0.0369,0.0352,0.0445,0.0394,0.0398,0.0412,0.0502,0.0519,0.0534,0.034,0.034,0.0339,0,0,0.0289,0.0296,0.0328,0.0342,0.036,0.0356,0.0363,0.0369,0.0368,0.0388,0.0372,0.0392,0.0407,0.0414,0.0418,0.0475,0.0481,0.0478,0.0515,0.0603,0.0618,0.0632,0.0652,0.0668,0.0476,0.0476,0.0476,0,0.0295,0.0329,0.0339,0.0373,0.0382,0.037,0.0397,0.0401,0.0407,0.0423,0.0402,0.0452,0.0438,0.0485,0.049,0.0488,0.0523,0.0477,0.0611,0.0626,0.064,0.0658,0.0675,0.0478,0.0477,0.0477,0.0477,0,0.035,0.0374,0.0398,0.0429,0.0444,0.0468,0.047,0.0484,0.0476,0.0485,0.0536,0.0532,0.0568,0.0559,0.0531,0.0618,0.0604,0.0612,0.0588,0.0659,0.0673,0.069,0.0481,0.048,0.0479,0.0479,0,0,0.0359,0.0422,0.0427,0.0448,0.0472,0.049,0.0514,0.0541,0.058,0.0587,0.0652,0.0649,0.0664,0.0672,0.0656,0.0704,0.0792,0.0693,0.0697,0.0706,0.0955,0.086,0.0868,0.0836,0.084,0.0843,0.0912,0,0.0391,0.0459,0.0478,0.0523,0.0553,0.0555,0.0584,0.0609,0.0636,0.0701,0.0713,0.0772,0.0704,0.0734,0.0775,0.0817,0.0846,0.077,0.0892,0.0894,0.0797,0.0889,0.0866,0.092,0.0929,0.0931,0.0933,0,0.0429,0.0469,0.0527,0.0576,0.0591,0.0613,0.0666,0.0695,0.0774,0.0807,0.087,0.09,0.0966,0.0908,0.1005,0.0969,0.0959,0.0967,0.0971,0.0891,0.0834,0.0861,0.0951,0.0885,0.0959,0.0957,0.0955,0,0.0431,0.0495,0.0538,0.0556,0.0616,0.0639,0.0663,0.0731,0.0785,0.0893,0.0972,0.1048,0.1117,0.1151,0.1139,0.1103,0.1246,0.1206,0.1095,0.1086,0.1094,0.1078,0.1134,0.127,0.127,0.127,0.127,0,0.0455,0.0489,0.0544,0.0574,0.0626,0.0659,0.0738,0.0775,0.0883,0.0991,0.1035,0.1147,0.1193,0.1265,0.1225,0.122,0.132,0.1125,0.1122,0.1096,0.1081,0.1042,0.1013,0.1273,0.1272,0.1272,0.1271,0,0.0461,0.0498,0.055,0.0613,0.0633,0.067,0.0766,0.0847,0.0931,0.1083,0.1132,0.1268,0.1369,0.1367,0.1437,0.1332,0.1294,0.1283,0.1205,0.1191,0.0986,0.0958,0.1029,0.1024,0.119,0.1188,0.1187,0,0.0478,0.051,0.0571,0.061,0.0641,0.0706,0.0773,0.0857,0.0959,0.1159,0.1254,0.139,0.1512,0.1546,0.1427,0.1354,0.1285,0.1209,0.1119,0.0992,0.0963,0.0945,0.0937,0.1132,0.1131,0.1129,0.1128,0,0.0513,0.0529,0.0575,0.0646,0.071,0.0795,0.0895,0.0979,0.1117,0.1264,0.1468,0.1585,0.1602,0.1559,0.1409,0.1325,0.1167,0.1171,0.1118,0.0987,0.0907,0.0894,0.1015,0.1116,0.1117,0.1118,0.1119,0.1119,0.0536,0.0564,0.0625,0.069,0.0777,0.0897,0.0978,0.1123,0.1298,0.1533,0.1611,0.1794,0.1651,0.1475,0.1347,0.1036,0.1082,0.0924,0.0918,0.0924,0.0878,0.0915,0.0956,0.0957,0.0957,0.0957,0.0957,0,0.0563,0.0606,0.0676,0.077,0.088,0.0914,0.1082,0.1197,0.1416,0.163,0.1809,0.1798,0.1644,0.1411,0.1003,0.0822,0.0793,0.0738,0.0748,0.0766,0.0877,0.0827,0.0749,0.0749,0.0749,0.0749,0.0749,0.075,0.0588,0.0646,0.0679,0.0847,0.0929,0.1077,0.1175,0.1355,0.1526,0.1744,0.182,0.1878,0.1661,0.1101,0.0746,0.0675,0.0626,0.0573,0.0578,0.0657,0.0675,0.0692,0.0638,0.0522,0.0522,0.0484,0.0483,0.0483]}],[{"header":{"parameterUnit":"m.s-1","parameterCategory":2,"la1":30.2991,"la2":30.254,"lo1":-89.0895,"lo2":-89.0444,"dy":0.0017,"dx":0.0017,"nx":28,"ny":28,"refTime":"2023-08-01T09:00:00:Z","depth":"2","parameterNumber":2,"parameterNumberName":"U-component_of_CURRENTS"},"data":[0,0,0,0,0,0,0,0,0,0,0,0,0,0,0,0,0,0,0,0,0,0,0,0,0,0,0,0,0,0,0,0,0,0,0,0,0,0,0,0,0,0,0,0,0,0,0,0,0,0,0,0,0,0,0,0,0,0,0.1888,0.1888,0,0.1894,0.1894,0.1894,0.1862,0.1861,0.186,0.1859,0.1839,0.1839,0.1839,0,0,0,0,0,0,0,0,0,0,0,0,0,0.1917,0.1916,0.1888,0.1888,0.1888,0.1894,0.1894,0.1894,0.1862,0.1861,0.186,0.1859,0.1839,0.1839,0.184,0,0,0,0,0,0,0,0,0,0,0,0,0,0.1912,0.1916,0.1888,0.1872,0.1871,0.1894,0.1894,0.1894,0.1862,0.1861,0.1859,0.1858,0.1839,0.1839,0.184,0.1871,0,0,0.1841,0.1841,0,0,0,0,0,0,0,0,0.1912,0.1911,0.1874,0.1873,0.1872,0.1875,0.1897,0.1885,0.1862,0.1866,0.1859,0.1857,0.185,0.1849,0.1854,0.187,0.1869,0.1841,0.1842,0.1842,0.1842,0,0,0,0,0,0,0,0.1912,0.1911,0.189,0.1875,0.1873,0.1889,0.1886,0.1895,0.1865,0.1865,0.1863,0.1864,0.1848,0.1854,0.1853,0.1869,0.1841,0.1842,0.1842,0.1842,0.195,0.1952,0,0,0,0,0,0,0.1909,0.1911,0.189,0.189,0.1889,0.1889,0.1886,0.1876,0.1866,0.1863,0.1865,0.1862,0.1853,0.1853,0.1852,0.1916,0.1842,0.1842,0.1843,0.1947,0.195,0.1953,0,0,0,0,0,0,0.191,0.1907,0.189,0.1901,0.19,0.189,0.1879,0.1877,0.1892,0.1866,0.1862,0.1883,0.1852,0.1852,0.1872,0.1914,0.1842,0.1843,0.1944,0.1948,0.1952,0.2026,0,0,0,0,0,0,0.191,0.1907,0.1915,0.1901,0.1899,0.1917,0.188,0.1878,0.1893,0.189,0.188,0.1876,0.1851,0.1871,0.1872,0.1913,0.1843,0.1941,0.1946,0.195,0.202,0.2032,0.2042,0,0,0,0,0,0.1911,0.1916,0.1915,0.1914,0.1905,0.1919,0.1921,0.1909,0.1896,0.1915,0.1904,0.1877,0.1903,0.1874,0.1874,0.1916,0.1938,0.1944,0.195,0.2016,0.203,0.2042,0,0,0,0,0,0,0.1931,0.1913,0.1912,0.1911,0.1925,0.1913,0.1927,0.1926,0.1934,0.1932,0.1902,0.1899,0.1938,0.1923,0.1891,0.1965,0.192,0.1926,0.197,0.1983,0.1994,0.2042,0.1844,0,0,0,0,0,0.1942,0.1942,0.1937,0.1943,0.1948,0.1947,0.1956,0.1955,0.1953,0.1955,0.1948,0.1949,0.1964,0.1967,0.1978,0.2013,0.2047,0.2045,0.2056,0.2065,0.2107,0.2215,0.224,0.1972,0.1972,0.1972,0,0,0.1953,0.1944,0.1945,0.195,0.1953,0.1943,0.1949,0.1971,0.1971,0.1954,0.1964,0.199,0.1985,0.2023,0.204,0.2012,0.2152,0.2072,0.2079,0.2118,0.2224,0.225,0.2274,0.1976,0.1975,0.1974,0,0,0.1971,0.1967,0.1975,0.1979,0.1995,0.1974,0.1984,0.1995,0.2014,0.2046,0.2034,0.2081,0.2098,0.2102,0.2104,0.2184,0.2211,0.2206,0.2291,0.2394,0.2418,0.2439,0.2483,0.2508,0.2204,0.2204,0.2204,0,0.199,0.1969,0.1986,0.199,0.1979,0.198,0.1976,0.1993,0.2015,0.2069,0.2058,0.2166,0.2129,0.2205,0.2229,0.2205,0.2279,0.2233,0.241,0.2432,0.2453,0.2493,0.252,0.2208,0.2208,0.2207,0.2207,0,0.1996,0.1983,0.1986,0.1963,0.1978,0.1967,0.1983,0.2023,0.2047,0.2092,0.2224,0.2236,0.2303,0.2308,0.2285,0.2428,0.2436,0.2414,0.2377,0.2484,0.2519,0.2545,0.2214,0.2213,0.2212,0.2211,0,0,0.2005,0.1986,0.1984,0.1988,0.1952,0.1978,0.1987,0.2034,0.2103,0.2186,0.2298,0.2356,0.2438,0.2451,0.2465,0.2564,0.2715,0.2576,0.2579,0.2619,0.2959,0.2723,0.2727,0.2767,0.2773,0.2778,0.2912,0,0.1987,0.1977,0.1965,0.1956,0.1949,0.196,0.1994,0.207,0.2131,0.2243,0.2356,0.2459,0.2467,0.2535,0.2639,0.2722,0.2799,0.2681,0.2852,0.2855,0.2633,0.2754,0.2503,0.2584,0.2937,0.2941,0.2945,0,0.1972,0.1971,0.1962,0.199,0.1998,0.2016,0.2101,0.2135,0.2282,0.2361,0.2513,0.259,0.2751,0.2722,0.2967,0.2923,0.2951,0.3006,0.3011,0.2795,0.2669,0.2542,0.2618,0.2988,0.2984,0.2981,0.2978,0,0.1981,0.1961,0.1957,0.1954,0.1994,0.206,0.209,0.2218,0.2291,0.2455,0.2541,0.2751,0.285,0.301,0.3071,0.3073,0.3313,0.3288,0.3099,0.308,0.2896,0.2849,0.3437,0.3437,0.3436,0.3436,0.3436,0,0.1937,0.1952,0.199,0.2007,0.2075,0.2126,0.2238,0.2302,0.2434,0.2542,0.2633,0.2736,0.2948,0.3069,0.3144,0.3196,0.3355,0.3155,0.3123,0.2904,0.2859,0.3232,0.3207,0.3441,0.344,0.3439,0.3438,0,0.1961,0.195,0.198,0.2051,0.2086,0.2166,0.2278,0.2367,0.2486,0.2613,0.267,0.2797,0.2961,0.3086,0.3288,0.323,0.3316,0.3254,0.2941,0.2868,0.3006,0.2984,0.314,0.3133,0.3127,0.3123,0.3119,0,0.197,0.1986,0.2032,0.2059,0.2101,0.2208,0.2282,0.2392,0.2464,0.2633,0.2688,0.2842,0.2884,0.3035,0.3026,0.3086,0.3193,0.28,0.2719,0.3035,0.299,0.2975,0.296,0.2512,0.2504,0.2497,0.2491,0,0.1995,0.2012,0.2023,0.2093,0.2162,0.2213,0.2321,0.2369,0.2506,0.2593,0.2661,0.2697,0.2762,0.2666,0.266,0.2658,0.2786,0.2649,0.3141,0.2575,0.244,0.2395,0.2403,0.2428,0.2435,0.2439,0.2443,0.2445,0.1998,0.2026,0.2046,0.21,0.2162,0.2211,0.2234,0.2301,0.2376,0.2423,0.2517,0.2456,0.2425,0.2288,0.2216,0.2167,0.2387,0.2277,0.2302,0.2335,0.2187,0.2044,0.193,0.1933,0.1936,0.1938,0.1941,0,0.2006,0.2035,0.2059,0.2094,0.2118,0.2197,0.2247,0.2204,0.2207,0.2217,0.2207,0.1944,0.1834,0.1855,0.1671,0.1607,0.164,0.1538,0.1594,0.1656,0.1711,0.1535,0.1104,0.1102,0.1099,0.1097,0,0,0.1982,0.2003,0.2007,0.202,0.208,0.2097,0.2104,0.199,0.1933,0.1782,0.1699,0.1748,0.1774,0.1428,0.1354,0.1211,0.143,0.1143,0.1815,0.1945,0.1998,0.2133,0.1928,0,0,0,0,0]},{"header":{"parameterUnit":"m.s-1","parameterCategory":2,"la1":30.2991,"la2":30.254,"lo1":-89.0895,"lo2":-89.0444,"dy":0.0017,"dx":0.0017,"nx":28,"ny":28,"refTime":"2023-08-01T09:00:00:Z","depth":"2","parameterNumber":3,"parameterNumberName":"V-component_of_CURRENTS"},"data":[0,0,0,0,0,0,0,0,0,0,0,0,0,0,0,0,0,0,0,0,0,0,0,0,0,0,0,0,0,0,0,0,0,0,0,0,0,0,0,0,0,0,0,0,0,0,0,0,0,0,0,0,0,0,0,0,0,0,0.0022,0.0022,0,0.0015,0.0015,0.0015,0.0009,0.0009,0.0009,0.0009,0.0002,0.0002,0.0002,0,0,0,0,0,0,0,0,0,0,0,0,0,0.0008,0.0009,0.0022,0.0022,0.0022,0.0015,0.0015,0.0015,0.0009,0.0009,0.0009,0.0009,0.0002,0.0002,0.0002,0,0,0,0,0,0,0,0,0,0,0,0,0,0.0009,0.0009,0.0022,0.0018,0.0018,0.0015,0.0015,0.0015,0.0009,0.0009,0.0009,0.0009,0.0002,0.0002,0.0002,0.0003,0,0,0.0001,0.0001,0,0,0,0,0,0,0,0,0.0009,0.001,0.0019,0.0018,0.0018,0.0013,0.0008,0.0011,0.0009,0.0013,0.0009,0.0009,0.0005,0.0005,0.0004,0.0003,0.0003,0.0001,0.0001,0.0001,0.0001,0,0,0,0,0,0,0,0.0009,0.001,0.002,0.0019,0.0018,0.0009,0.0009,0.0008,0.001,0.0012,0.0012,0.0011,0.0005,0.0005,0.0004,0.0003,0.0001,0.0001,0.0001,0.0001,0.0007,0.0007,0,0,0,0,0,0,0.0011,0.001,0.002,0.002,0.0013,0.0009,0.001,0.0015,0.001,0.0009,0.0011,0.0011,0.0005,0.0004,0.0004,0.0006,0.0001,0.0001,0.0001,0.0007,0.0007,0.0007,0,0,0,0,0,0,0.0011,0.0012,0.002,0.0014,0.0014,0.001,0.0016,0.0015,0.0016,0.0009,0.0008,0.0013,0.0005,0.0004,0.0,0.0005,0.0001,0.0001,0.0007,0.0007,0.0007,0.0009,0,0,0,0,0,0,0.0011,0.0012,0.0017,0.0014,0.0015,0.0025,0.0016,0.0015,0.0015,0.0015,0.0011,0.001,0.0005,0.0001,0.0,0.0005,0.0001,0.0006,0.0007,0.0007,0.0009,0.001,0.001,0,0,0,0,0,0.001,0.0018,0.0018,0.0019,0.0022,0.0026,0.0025,0.0021,0.0016,0.0021,0.0011,0.001,0.0004,0.0,-0.0,0.0005,0.0006,0.0007,0.0007,0.0009,0.001,0.001,0,0,0,0,0,0,0.0009,0.0018,0.0017,0.0026,0.0028,0.0025,0.0028,0.0024,0.002,0.0021,0.0009,0.0008,0.0009,0.0007,0.0004,0.0009,0.0007,0.0007,0.0008,0.0009,0.0009,0.0019,0.0,0,0,0,0,0,0.0013,0.0026,0.0026,0.0034,0.0037,0.0033,0.0033,0.0033,0.0029,0.0027,0.002,0.0015,0.0011,0.0009,0.0008,0.0009,0.0036,0.0013,0.0014,0.0015,0.0023,0.0075,0.0082,0.0009,0.0009,0.0009,0,0,0.0012,0.0021,0.0025,0.0035,0.0036,0.0038,0.0033,0.004,0.0037,0.0027,0.0022,0.0019,0.0012,0.0012,0.0012,0.001,0.0048,0.0016,0.0016,0.0024,0.0076,0.0084,0.009,0.001,0.001,0.001,0,0,0.0021,0.0028,0.0041,0.0044,0.0052,0.0049,0.0051,0.0051,0.0048,0.0044,0.0035,0.0031,0.0026,0.002,0.0015,0.002,0.0052,0.0026,0.0036,0.0086,0.0093,0.0099,0.0139,0.0149,0.0025,0.0025,0.0025,0,0.0016,0.0035,0.0044,0.0055,0.0053,0.0053,0.0056,0.0054,0.005,0.0061,0.0044,0.0052,0.0028,0.0039,0.0026,0.0021,0.0062,0.0031,0.0088,0.0095,0.0102,0.0142,0.0152,0.0025,0.0025,0.0025,0.0025,0,0.0037,0.0044,0.0052,0.0063,0.0065,0.007,0.0066,0.0075,0.0068,0.0073,0.009,0.0065,0.0077,0.006,0.0033,0.0068,0.0086,0.0085,0.0088,0.0109,0.0149,0.0161,0.0026,0.0026,0.0026,0.0026,0,0,0.0039,0.0061,0.0062,0.007,0.0069,0.0077,0.0078,0.0092,0.0133,0.011,0.0162,0.0104,0.0117,0.0112,0.0094,0.0111,0.0158,0.0113,0.0115,0.0156,0.0282,0.0215,0.0221,0.0183,0.0185,0.0187,0.0291,0,0.0047,0.0069,0.0074,0.0084,0.009,0.0093,0.0106,0.0123,0.0148,0.0205,0.0184,0.0222,0.0132,0.0158,0.0153,0.0184,0.019,0.0131,0.0253,0.0256,0.0197,0.0232,0.0226,0.0311,0.0302,0.0304,0.0305,0,0.006,0.0075,0.0084,0.0111,0.0118,0.0121,0.0174,0.019,0.0259,0.0289,0.0319,0.034,0.0349,0.0283,0.0314,0.0293,0.0274,0.0276,0.0281,0.0228,0.021,0.0289,0.0333,0.0324,0.0323,0.0321,0.032,0,0.0062,0.0081,0.009,0.0092,0.0122,0.0134,0.0151,0.0214,0.0274,0.0361,0.0442,0.0458,0.0507,0.0486,0.044,0.0409,0.0496,0.0464,0.038,0.0376,0.0396,0.0389,0.0479,0.0479,0.0478,0.0478,0.0478,0,0.0065,0.0078,0.0093,0.01,0.0145,0.0148,0.0231,0.0264,0.0365,0.049,0.0485,0.0611,0.0566,0.0605,0.0527,0.0492,0.0562,0.0394,0.0403,0.0393,0.0385,0.0412,0.0403,0.0482,0.0481,0.048,0.048,0,0.0071,0.0075,0.0098,0.0126,0.0145,0.0173,0.0274,0.0372,0.0429,0.0603,0.0642,0.0757,0.0814,0.0737,0.0747,0.0622,0.0583,0.0538,0.0513,0.0513,0.0411,0.0401,0.0491,0.049,0.0489,0.0488,0.0487,0,0.0077,0.0085,0.0123,0.0165,0.0178,0.0238,0.0325,0.0395,0.0521,0.0718,0.0834,0.0928,0.1026,0.0974,0.0803,0.0662,0.0618,0.0529,0.0431,0.0415,0.0415,0.0407,0.0398,0.0473,0.0473,0.0472,0.0471,0,0.0102,0.011,0.0142,0.0225,0.03,0.0411,0.0525,0.0628,0.0768,0.0924,0.1151,0.1233,0.1163,0.1052,0.08,0.0689,0.0543,0.0506,0.0561,0.0438,0.0398,0.0397,0.039,0.0465,0.0466,0.0466,0.0466,0.0467,0.0136,0.0168,0.0226,0.0313,0.0417,0.0586,0.0696,0.0865,0.1077,0.1286,0.1347,0.1415,0.1237,0.0919,0.0738,0.0509,0.0524,0.0411,0.0415,0.042,0.0366,0.0322,0.0366,0.0366,0.0366,0.0366,0.0366,0,0.0192,0.0244,0.0329,0.0458,0.061,0.0639,0.0857,0.0993,0.1259,0.1377,0.1509,0.1307,0.1154,0.0925,0.0585,0.0387,0.0375,0.0314,0.0347,0.0355,0.0361,0.0305,0.0289,0.0289,0.0288,0.0287,0,0,0.0238,0.0327,0.0378,0.0621,0.072,0.0921,0.1044,0.1235,0.1337,0.1474,0.146,0.1417,0.1157,0.0886,0.0651,0.0469,0.0446,0.0421,0.0502,0.0576,0.0584,0.0435,0.0358,0,0,0,0,0]}],[{"header":{"parameterUnit":"m.s-1","parameterCategory":2,"la1":30.2991,"la2":30.254,"lo1":-89.0895,"lo2":-89.0444,"dy":0.0017,"dx":0.0017,"nx":28,"ny":28,"refTime":"2023-08-01T09:00:00:Z","depth":"4","parameterNumber":2,"parameterNumberName":"U-component_of_CURRENTS"},"data":[0,0,0,0,0,0,0,0,0,0,0,0,0,0,0,0,0,0,0,0,0,0,0,0,0,0,0,0,0,0,0,0,0,0,0,0,0,0,0,0,0,0,0,0,0,0,0,0,0,0,0,0,0,0,0,0,0,0,0.0923,0.0923,0,0.0949,0.0949,0.0949,0.0979,0.098,0.098,0.0981,0.0988,0.0988,0.0988,0,0,0,0,0,0,0,0,0,0,0,0,0,0.0905,0.0905,0.0923,0.0923,0.0923,0.0949,0.0949,0.0949,0.0979,0.098,0.098,0.0981,0.0988,0.0988,0.0988,0,0,0,0,0,0,0,0,0,0,0,0,0,0.0919,0.0905,0.0923,0.0942,0.0944,0.0949,0.0949,0.0949,0.0979,0.098,0.0981,0.0981,0.0989,0.0988,0.0988,0.097,0,0,0.0986,0.0986,0,0,0,0,0,0,0,0,0.0919,0.092,0.0939,0.0941,0.0943,0.0962,0.0946,0.0955,0.0979,0.0965,0.0981,0.0982,0.0978,0.0978,0.0981,0.097,0.097,0.0986,0.0986,0.0986,0.0986,0,0,0,0,0,0,0,0.0918,0.0919,0.0932,0.0939,0.0942,0.0952,0.0954,0.0948,0.0966,0.0966,0.0969,0.0972,0.0979,0.0981,0.0981,0.097,0.0986,0.0986,0.0986,0.0986,0.102,0.1021,0,0,0,0,0,0,0.0915,0.0918,0.0931,0.0933,0.0933,0.0951,0.0954,0.0955,0.0966,0.0969,0.0972,0.0974,0.0981,0.0981,0.0981,0.101,0.0986,0.0986,0.0985,0.1019,0.102,0.1022,0,0,0,0,0,0,0.0914,0.0915,0.093,0.0927,0.093,0.0951,0.0951,0.0955,0.0977,0.0971,0.0973,0.0993,0.0982,0.0982,0.0998,0.1008,0.0985,0.0985,0.1018,0.1019,0.1021,0.1035,0,0,0,0,0,0,0.0913,0.0915,0.0927,0.0927,0.093,0.0945,0.095,0.0955,0.0978,0.0981,0.0989,0.099,0.0983,0.0999,0.0998,0.1007,0.0985,0.1016,0.1018,0.1021,0.1033,0.1037,0.104,0,0,0,0,0,0.0912,0.0918,0.0927,0.093,0.0941,0.0946,0.0949,0.0965,0.0978,0.0989,0.1001,0.0991,0.1013,0.1,0.0998,0.1007,0.1015,0.1018,0.102,0.1031,0.1036,0.104,0,0,0,0,0,0,0.0916,0.0922,0.0932,0.094,0.095,0.0951,0.0965,0.0976,0.0994,0.1004,0.0999,0.1001,0.1026,0.1016,0.1002,0.1028,0.1014,0.1017,0.1023,0.1028,0.1031,0.1009,0.0984,0,0,0,0,0,0.0922,0.0932,0.0936,0.0947,0.0951,0.0962,0.0972,0.0984,0.0993,0.1003,0.1015,0.1026,0.1031,0.103,0.1042,0.1042,0.1064,0.1051,0.1055,0.1058,0.1041,0.1098,0.1105,0.103,0.103,0.103,0,0,0.0922,0.0933,0.0936,0.095,0.0958,0.0944,0.097,0.0988,0.0975,0.0999,0.1008,0.1046,0.104,0.1054,0.1062,0.1045,0.1098,0.1061,0.1064,0.1045,0.1101,0.1109,0.1115,0.1032,0.1032,0.1032,0,0,0.0913,0.0941,0.0936,0.094,0.0958,0.0958,0.0966,0.0985,0.0997,0.1017,0.1033,0.1081,0.1085,0.1089,0.1084,0.1113,0.1127,0.1121,0.1103,0.1159,0.1165,0.1171,0.1235,0.1246,0.1109,0.1109,0.1109,0,0.0917,0.0898,0.0937,0.0926,0.0912,0.0959,0.0927,0.0944,0.0973,0.0983,0.1025,0.1078,0.1098,0.1086,0.1108,0.1119,0.1155,0.1083,0.1163,0.1169,0.1174,0.1238,0.1251,0.111,0.1109,0.1109,0.1109,0,0.0882,0.0873,0.0871,0.0861,0.0863,0.085,0.0864,0.0898,0.0938,0.0957,0.1006,0.1061,0.1094,0.1115,0.1118,0.1155,0.1173,0.1174,0.1148,0.1182,0.1249,0.1261,0.1111,0.1111,0.111,0.111,0,0,0.0866,0.0841,0.0845,0.0819,0.0818,0.0816,0.0813,0.0813,0.0849,0.0904,0.0946,0.0982,0.1057,0.1058,0.1094,0.1137,0.1239,0.1169,0.1172,0.1226,0.1375,0.1228,0.1228,0.1256,0.1257,0.1258,0.1415,0,0.0815,0.0759,0.0765,0.0715,0.0674,0.0713,0.0703,0.0732,0.081,0.0887,0.094,0.1026,0.1013,0.1099,0.1118,0.121,0.1267,0.1196,0.1338,0.1342,0.1201,0.1234,0.1263,0.1424,0.1427,0.1429,0.143,0,0.0762,0.073,0.065,0.0622,0.0614,0.0609,0.0648,0.0653,0.0756,0.0845,0.0926,0.1019,0.1079,0.1125,0.1217,0.1173,0.1275,0.1345,0.1353,0.1208,0.1215,0.1377,0.1453,0.1451,0.1449,0.1448,0.1446,0,0.0697,0.0653,0.058,0.0563,0.0542,0.0549,0.0561,0.0644,0.0683,0.0867,0.0985,0.1036,0.1148,0.1211,0.1336,0.1305,0.1477,0.1457,0.1417,0.141,0.1491,0.1483,0.1571,0.1571,0.157,0.157,0.1569,0,0.0608,0.0561,0.056,0.052,0.0485,0.0504,0.0535,0.0602,0.0726,0.0809,0.0967,0.1076,0.1189,0.1299,0.1364,0.14,0.1496,0.1409,0.1429,0.1498,0.1489,0.1502,0.1491,0.1576,0.1575,0.1573,0.1572,0,0.0511,0.0504,0.0431,0.0426,0.0442,0.0423,0.0503,0.0562,0.0706,0.085,0.093,0.1122,0.1246,0.1349,0.151,0.1451,0.1521,0.1546,0.1636,0.1661,0.1411,0.1401,0.1461,0.1457,0.1454,0.1451,0.1448,0,0.0443,0.0387,0.0369,0.038,0.0382,0.0397,0.0434,0.054,0.0629,0.0862,0.093,0.1132,0.1252,0.1346,0.1426,0.1513,0.1519,0.1552,0.1427,0.1381,0.1396,0.1391,0.1385,0.1443,0.1442,0.1441,0.144,0,0.0305,0.0303,0.0263,0.0288,0.0326,0.0344,0.042,0.047,0.0629,0.0778,0.0957,0.107,0.1206,0.1272,0.1383,0.1434,0.1492,0.1515,0.1521,0.1403,0.136,0.1376,0.1375,0.1428,0.143,0.1431,0.1432,0,0.0229,0.0177,0.017,0.0199,0.0247,0.0294,0.0329,0.0454,0.0527,0.0797,0.0839,0.1056,0.12,0.1237,0.1315,0.1351,0.1307,0.1265,0.1283,0.1297,0.1159,0.1074,0.1067,0,0,0,0,0,0.016,0.0114,0.0112,0.0131,0.019,0.0223,0.0333,0.0394,0.0555,0.0662,0.0752,0.0894,0.1019,0.1096,0.1097,0.118,0.1278,0.1168,0.1229,0.1361,0.1375,0.1219,0,0,0,0,0,0,0.0114,0.0072,0.0068,0.0095,0.012,0.0166,0.0229,0.0338,0.0401,0.0588,0.0662,0.0805,0.0929,0.1016,0.1072,0.1091,0.1102,0.1273,0.127,0.1353,0.1365,0.1377,0.1222,0,0,0,0,0]},{"header":{"parameterUnit":"m.s-1","parameterCategory":2,"la1":30.2991,"la2":30.254,"lo1":-89.0895,"lo2":-89.0444,"dy":0.0017,"dx":0.0017,"nx":28,"ny":28,"refTime":"2023-08-01T09:00:00:Z","depth":"4","parameterNumber":3,"parameterNumberName":"V-component_of_CURRENTS"},"data":[0,0,0,0,0,0,0,0,0,0,0,0,0,0,0,0,0,0,0,0,0,0,0,0,0,0,0,0,0,0,0,0,0,0,0,0,0,0,0,0,0,0,0,0,0,0,0,0,0,0,0,0,0,0,0,0,0,0,-0.0005,-0.0005,0,-0.0014,-0.0014,-0.0014,-0.0009,-0.0009,-0.0009,-0.0009,-0.0016,-0.0016,-0.0017,0,0,0,0,0,0,0,0,0,0,0,0,0,-0.0004,-0.0004,-0.0005,-0.0005,-0.0005,-0.0014,-0.0014,-0.0014,-0.0009,-0.0009,-0.0009,-0.0008,-0.0016,-0.0016,-0.0017,0,0,0,0,0,0,0,0,0,0,0,0,0,-0.0008,-0.0004,-0.0005,-0.0003,-0.0003,-0.0014,-0.0014,-0.0014,-0.001,-0.0009,-0.0009,-0.0008,-0.0016,-0.0016,-0.0017,-0.0029,0,0,-0.0019,-0.0019,0,0,0,0,0,0,0,0,-0.0008,-0.0008,-0.0004,-0.0004,-0.0004,-0.001,-0.0017,-0.0019,-0.001,-0.0007,-0.0009,-0.0008,-0.0014,-0.0015,-0.0018,-0.003,-0.003,-0.0019,-0.0019,-0.002,-0.002,0,0,0,0,0,0,0,-0.0008,-0.0008,-0.0009,-0.0004,-0.0004,-0.001,-0.001,-0.0017,-0.0013,-0.0008,-0.0007,-0.0008,-0.0014,-0.0017,-0.0018,-0.003,-0.0019,-0.002,-0.002,-0.002,-0.0047,-0.0048,0,0,0,0,0,0,-0.0005,-0.0008,-0.0008,-0.0009,-0.0005,-0.001,-0.001,-0.0009,-0.0013,-0.0013,-0.0008,-0.0008,-0.0016,-0.0017,-0.0018,-0.001,-0.002,-0.002,-0.0021,-0.0047,-0.0048,-0.0048,0,0,0,0,0,0,-0.0005,-0.0005,-0.0008,-0.0009,-0.0009,-0.001,-0.0009,-0.0009,-0.0009,-0.0013,-0.0014,-0.0008,-0.0016,-0.0017,-0.0025,-0.0011,-0.0021,-0.0021,-0.0047,-0.0047,-0.0048,-0.0008,0,0,0,0,0,0,-0.0005,-0.0005,-0.0005,-0.0008,-0.0009,-0.0012,-0.0009,-0.0009,-0.001,-0.0009,-0.0013,-0.0014,-0.0016,-0.0024,-0.0026,-0.0012,-0.0022,-0.0046,-0.0047,-0.0048,-0.0009,-0.0007,-0.0006,0,0,0,0,0,-0.0005,-0.0005,-0.0004,-0.0005,-0.0008,-0.0012,-0.0013,-0.0013,-0.001,-0.0011,-0.0016,-0.0013,-0.0029,-0.0025,-0.0027,-0.0013,-0.0046,-0.0047,-0.0048,-0.001,-0.0008,-0.0006,0,0,0,0,0,0,-0.0009,-0.0005,-0.0004,-0.0004,-0.0007,-0.0011,-0.0012,-0.0013,-0.0017,-0.0015,-0.0019,-0.002,-0.0024,-0.003,-0.0026,-0.0025,-0.0037,-0.0038,-0.0007,-0.0005,-0.0004,0.0036,-0.0022,0,0,0,0,0,-0.0009,-0.0005,-0.0006,-0.0007,-0.0006,-0.0009,-0.0011,-0.0011,-0.0015,-0.0016,-0.0021,-0.0027,-0.003,-0.0027,-0.0038,-0.0036,-0.0049,-0.003,-0.0028,-0.0026,0.0003,-0.0039,-0.0038,-0.005,-0.005,-0.005,0,0,-0.0011,-0.0008,-0.0007,-0.0007,-0.0008,0.0009,-0.0009,-0.001,0.0011,-0.0017,-0.0001,-0.0026,-0.0032,-0.003,-0.0031,-0.003,-0.003,-0.0027,-0.0025,0.0004,-0.004,-0.0038,-0.0037,-0.0051,-0.0051,-0.0051,0,0,-0.0005,-0.001,0.0002,0.0007,0.0009,0.0012,0.0014,0.0008,0.0013,0.0013,0.0003,-0.001,-0.0022,-0.0014,-0.0012,-0.0009,-0.0028,-0.0022,0.0032,-0.001,-0.0008,-0.0007,-0.002,-0.0021,-0.0011,-0.0011,-0.0011,0,-0.0006,0.0017,0.0002,0.0022,0.0041,0.002,0.005,0.0049,0.0041,0.0056,0.0023,0.0008,-0.0005,0.0021,0.0024,0.0,-0.0024,0.0028,-0.0005,-0.0005,-0.0005,-0.0018,-0.0019,-0.0009,-0.001,-0.001,-0.001,0,0.002,0.0042,0.0048,0.0078,0.0089,0.0106,0.0113,0.0118,0.011,0.0112,0.0109,0.0068,0.0068,0.0052,0.0046,0.005,0.0032,-0.0007,-0.0005,-0.0001,-0.0016,-0.0018,-0.0007,-0.0007,-0.0008,-0.0008,0,0,0.002,0.0063,0.0068,0.0108,0.0128,0.0146,0.0178,0.0212,0.024,0.0202,0.0221,0.0204,0.0168,0.0168,0.0135,0.0107,0.0083,0.0061,0.0058,0.006,0.0005,0.0009,0.0007,0.0026,0.0026,0.0025,-0.0005,0,0.0054,0.0116,0.0127,0.0198,0.0237,0.0245,0.0278,0.0301,0.0299,0.0299,0.0258,0.0256,0.0217,0.0203,0.0167,0.0085,0.008,0.0097,-0.0008,-0.0009,0.0001,0.0006,0.0025,-0.0006,-0.0007,-0.0007,-0.0007,0,0.0088,0.0132,0.0208,0.0283,0.03,0.0339,0.0404,0.0429,0.043,0.042,0.0401,0.0352,0.0317,0.0261,0.0162,0.0166,0.0116,0.0055,0.0051,0.0047,-0.0009,-0.0015,-0.0011,-0.001,-0.001,-0.001,-0.001,0,0.0121,0.0195,0.0266,0.0292,0.036,0.0406,0.0444,0.0473,0.0499,0.0499,0.0496,0.0431,0.0382,0.0292,0.018,0.0162,0.0055,0.0005,-0.0019,-0.0019,-0.003,-0.0031,-0.0024,-0.0024,-0.0023,-0.0023,-0.0023,0,0.0167,0.0227,0.0292,0.0337,0.0423,0.0456,0.0537,0.056,0.0572,0.0601,0.0561,0.054,0.0382,0.0298,0.0199,0.0085,0.0073,0.0011,-0.0025,-0.0013,-0.0012,-0.0031,-0.0032,-0.0025,-0.0024,-0.0024,-0.0024,0,0.0197,0.0237,0.0324,0.0411,0.0443,0.0507,0.0596,0.0639,0.0659,0.0682,0.0683,0.0602,0.0488,0.0359,0.0196,0.0118,0.0006,-0.0008,0.0047,0.001,-0.0041,-0.004,-0.0059,-0.0059,-0.0059,-0.006,-0.006,0,0.0221,0.0266,0.0371,0.0423,0.0473,0.0568,0.0624,0.0674,0.0705,0.0721,0.0711,0.0634,0.057,0.0355,0.0206,0.0038,0.0024,-0.0013,-0.0043,-0.0011,-0.0045,-0.0043,-0.0041,-0.006,-0.006,-0.006,-0.006,0,0.0265,0.0295,0.0363,0.0456,0.0536,0.0625,0.0703,0.073,0.0773,0.0788,0.0748,0.0659,0.0534,0.0346,0.0238,0.0113,-0.0,-0.0015,-0.0016,-0.0045,-0.0012,-0.0045,-0.0043,-0.006,-0.006,-0.006,-0.006,0,0.0286,0.0331,0.04,0.0489,0.0577,0.0651,0.0705,0.0744,0.0775,0.0783,0.0758,0.0657,0.0575,0.0388,0.0272,0.0157,0.0113,0.0077,0.007,0.0068,0.0105,0.0166,0.0158,0,0,0,0,0,0.0303,0.0351,0.0426,0.052,0.0602,0.0658,0.0734,0.0772,0.0809,0.0787,0.0778,0.0675,0.0503,0.0412,0.0296,0.025,0.0083,0.0109,0.0036,-0.0062,-0.0061,-0.0041,0,0,0,0,0,0,0.0314,0.0383,0.0421,0.0519,0.0589,0.068,0.0739,0.077,0.0751,0.0767,0.0664,0.0648,0.046,0.0568,0.0292,0.0257,0.0196,0.003,0.0028,-0.0062,-0.0062,-0.0061,-0.004,0,0,0,0,0]}]]